Weather History for Klawock, AK

Change the Weather History Date:

Thursday, October 4, 2012

  Actual Average Record
Temperature  
Mean Temperature 51 °F -  
Max Temperature 54 °F 52 °F 63 °F (2001)
Min Temperature 48 °F 41 °F 32 °F (1997)
Degree Days  
Heating Degree Days 14    
Growing Degree Days 1 (Base 50)    
Moisture  
Dew Point 47 °F    
Average Humidity 87    
Maximum Humidity 100    
Minimum Humidity 77    
Precipitation  
Precipitation 0.00 in - - ()
Sea Level Pressure  
Sea Level Pressure 30.49 in    
Wind  
Wind Speed 1 mph (SW)    
Max Wind Speed 5 mph    
Max Gust Speed -    
Visibility 10 miles    
Events      
Averages and records for this station are not official NWS values.
T = Trace of Precipitation, MM = Missing Value Source: NWS Daily Summary

Daily Weather History Graph

Daily Weather History Graph

Search for Another Location

Airport:

Trip Planner

Search our weather history database for the weather conditions in past years. The results will help you decide how hot, cold, wet, or windy it might be!

Date:

Astronomy

Oct. 04, 2012 Rise Set
Actual Time 7:02 AM AKDT 6:18 PM AKDT
Civil Twilight 6:25 AM AKDT 6:54 PM AKDT
Nautical Twilight 5:42 AM AKDT 7:37 PM AKDT
Astronomical Twilight 4:58 AM AKDT 8:21 PM AKDT
Moon 8:09 PM AKDT (10/4) 12:15 PM AKDT (10/4)
Length of Visible Light 12h 29m
Length of Day
11h 16m
Waning Gibbous, 81% of the Moon is Illuminated
Oct 4
Waning Gibbous
Oct 7
Last Quarter
Oct 15
New
Oct 21
First Quarter
Oct 29
Full

Hourly Weather History & Observations

Time (AKDT) Temp. Dew Point Humidity Pressure Visibility Wind Dir Wind Speed Gust Speed Precip Events Conditions
12:53 AM 48.0 °F 44.1 °F 86% 30.48 in 10.0 mi Calm Calm - N/A   Overcast
1:44 AM 48.2 °F 44.6 °F 87% 30.47 in 10.0 mi Calm Calm - N/A   Overcast
1:53 AM 48.9 °F 44.1 °F 83% 30.48 in 10.0 mi Calm Calm - N/A   Overcast
2:36 AM 48.2 °F 44.6 °F 87% 30.47 in 10.0 mi NNE 4.6 mph - N/A   Overcast
2:53 AM 48.9 °F 44.1 °F 83% 30.48 in 10.0 mi NNE 3.5 mph - N/A   Overcast
3:53 AM 48.0 °F 44.1 °F 86% 30.48 in 10.0 mi Calm Calm - N/A   Overcast
4:53 AM 48.0 °F 44.1 °F 86% 30.48 in 10.0 mi Calm Calm - N/A   Overcast
5:53 AM 48.0 °F 44.1 °F 86% 30.48 in 10.0 mi Calm Calm - N/A   Overcast
6:53 AM 48.0 °F 45.0 °F 89% 30.48 in 10.0 mi Calm Calm - N/A   Overcast
7:53 AM 48.9 °F 45.0 °F 86% 30.49 in 10.0 mi Calm Calm - N/A   Overcast
8:53 AM 50.0 °F 45.0 °F 83% 30.49 in 10.0 mi Calm Calm - N/A   Overcast
9:08 AM 50.0 °F 44.6 °F 82% 30.49 in 10.0 mi Calm Calm - N/A   Overcast
9:53 AM 51.1 °F 46.0 °F 83% 30.49 in 10.0 mi Calm Calm - N/A   Overcast
10:53 AM 52.0 °F 46.0 °F 80% 30.50 in 10.0 mi Calm Calm - N/A   Overcast
11:53 AM 52.0 °F 46.0 °F 80% 30.51 in 10.0 mi Calm Calm - N/A   Overcast
12:53 PM 53.1 °F 46.0 °F 77% 30.51 in 10.0 mi Calm Calm - N/A   Overcast
1:53 PM 54.0 °F 46.9 °F 77% 30.50 in 10.0 mi SW 3.5 mph - N/A   Overcast
2:53 PM 53.1 °F 48.9 °F 86% 30.51 in 10.0 mi WSW 3.5 mph - N/A   Overcast
3:53 PM 53.1 °F 48.9 °F 86% 30.50 in 10.0 mi Calm Calm - N/A   Overcast
4:53 PM 53.1 °F 48.9 °F 86% 30.51 in 10.0 mi Calm Calm - N/A   Overcast
5:53 PM 52.0 °F 48.9 °F 89% 30.49 in 10.0 mi Calm Calm - N/A   Overcast
6:53 PM 52.0 °F 50.0 °F 93% 30.50 in 10.0 mi Calm Calm - N/A   Overcast
7:53 PM 52.0 °F 50.0 °F 93% 30.50 in 10.0 mi Calm Calm - N/A   Overcast
8:13 PM 51.8 °F 48.2 °F 88% 30.49 in 10.0 mi Calm Calm - N/A   Overcast
8:53 PM 52.0 °F 48.9 °F 89% 30.49 in 10.0 mi SSW 3.5 mph - N/A   Overcast
9:53 PM 51.1 °F 50.0 °F 96% 30.50 in 10.0 mi Calm Calm - N/A   Overcast
10:43 PM 51.8 °F 50.0 °F 94% 30.50 in 10.0 mi Calm Calm - N/A   Overcast
10:53 PM 52.0 °F 50.0 °F 93% 30.51 in 9.0 mi Calm Calm - N/A   Overcast
11:23 PM 51.8 °F 51.8 °F 100% 30.50 in 4.0 mi SSW 4.6 mph - N/A   Overcast
11:53 PM 52.0 °F 51.1 °F 97% 30.51 in 9.0 mi South 3.5 mph - N/A   Overcast